Seward, AK

7:16 AM AKDT on May 28, 2017 (GMT -0800)
Seward

Weather History for PAWD - February, 2014

Change the Weather History Date:

Sunday, February 9, 2014

  Actual Average Record
Temperature  
Mean Temperature 21 °F -  
Max Temperature 24 °F 33 °F 45 °F (1982)
Min Temperature 18 °F 23 °F -1 °F (1984)
Degree Days  
Heating Degree Days 44    
Moisture  
Dew Point 3 °F    
Average Humidity 47    
Maximum Humidity 54    
Minimum Humidity 42    
Precipitation  
Precipitation 0.00 in - - ()
Sea Level Pressure  
Sea Level Pressure 29.91 in    
Wind  
Wind Speed 22 mph (North)    
Max Wind Speed 28 mph    
Max Gust Speed 39 mph    
Visibility 10 miles    
Events      
Averages and records for this station are not official NWS values.
T = Trace of Precipitation, MM = Missing Value Source: NWS Daily Summary

Daily Weather History Graph

Daily Weather History Graph

Search for Another Location

Airport or City:

Trip Planner

Search our weather history database for the weather conditions in past years. The results will help you decide how hot, cold, wet, or windy it might be!

Date:

Astronomy

Feb. 09, 2014 Rise Set
Actual Time 8:51 AM AKST 5:33 PM AKST
Civil Twilight 8:06 AM AKST 6:18 PM AKST
Nautical Twilight 7:16 AM AKST 7:08 PM AKST
Astronomical Twilight 6:28 AM AKST 7:56 PM AKST
Moon 12:50 PM AKST (2/9) 5:35 AM AKST (2/9)
Length of Visible Light 10h 12m
Length of Day
8h 41m
Waxing Gibbous, 78% of the Moon is Illuminated
Feb 9
Waxing Gibbous
Feb 14
Full
Feb 22
Last Quarter
Feb 28
New
Mar 8
First Quarter

Hourly Weather History & Observations

Time (AKST) Temp. Windchill Dew Point Humidity Pressure Visibility Wind Dir Wind Speed Gust Speed Precip Events Conditions
12:53 AM 24.1 °F 9.0 °F 6.1 °F 46% 30.06 in 10.0 mi North 21.9 mph 34.5 mph N/A   Clear
1:53 AM 23.0 °F 6.9 °F 6.1 °F 48% 30.05 in 10.0 mi North 24.2 mph 34.5 mph N/A   Clear
2:53 AM 21.9 °F 4.8 °F 7.0 °F 53% 30.03 in 10.0 mi North 26.5 mph 38.0 mph N/A   Clear
3:53 AM 21.0 °F 4.6 °F 6.1 °F 53% 30.03 in 10.0 mi North 23.0 mph 33.4 mph N/A   Clear
4:53 AM 21.0 °F 7.1 °F 5.0 °F 50% 30.01 in 10.0 mi NNE 16.1 mph 27.6 mph N/A   Clear
5:53 AM 21.0 °F 5.4 °F 3.9 °F 48% 30.00 in 10.0 mi North 20.7 mph 31.1 mph N/A   Clear
6:53 AM 19.9 °F 3.9 °F 3.9 °F 50% 29.98 in 10.0 mi North 20.7 mph 31.1 mph N/A   Clear
7:53 AM 19.0 °F 3.6 °F 3.0 °F 50% 29.96 in 10.0 mi North 18.4 mph 35.7 mph N/A   Clear
8:53 AM 18.0 °F 1.7 °F 3.0 °F 52% 29.96 in 10.0 mi NNE 19.6 mph 31.1 mph N/A   Clear
9:53 AM 18.0 °F -0.8 °F 1.9 °F 50% 29.95 in 10.0 mi North 27.6 mph 39.1 mph N/A   Clear
10:53 AM 19.0 °F 3.6 °F 5.0 °F 54% 29.94 in 10.0 mi NNE 18.4 mph 33.4 mph N/A   Clear
11:53 AM 19.9 °F 3.9 °F 3.9 °F 50% 29.93 in 10.0 mi North 20.7 mph 29.9 mph N/A   Clear
12:53 PM 21.9 °F 6.2 °F 3.9 °F 46% 29.91 in 10.0 mi North 21.9 mph 29.9 mph N/A   Clear
1:53 PM 23.0 °F 8.0 °F 3.9 °F 44% 29.88 in 10.0 mi NNE 20.7 mph 31.1 mph N/A   Clear
2:53 PM 23.0 °F 8.3 °F 5.0 °F 46% 29.87 in 10.0 mi North 19.6 mph 28.8 mph N/A   Clear
3:53 PM 21.0 °F 5.4 °F 3.0 °F 46% 29.85 in 10.0 mi North 20.7 mph 29.9 mph N/A   Clear
4:53 PM 21.0 °F 4.3 °F 1.9 °F 44% 29.84 in 10.0 mi North 24.2 mph 33.4 mph N/A   Clear
5:53 PM 19.9 °F 3.5 °F -0.0 °F 42% 29.84 in 10.0 mi North 21.9 mph 31.1 mph N/A   Clear
6:53 PM 19.9 °F 3.5 °F 1.9 °F 46% 29.82 in 10.0 mi North 21.9 mph 29.9 mph N/A   Clear
7:53 PM 19.9 °F 3.9 °F 1.0 °F 44% 29.81 in 10.0 mi North 20.7 mph 29.9 mph N/A   Clear
8:53 PM 19.9 °F 3.2 °F 1.0 °F 44% 29.80 in 10.0 mi North 23.0 mph 32.2 mph N/A   Overcast
9:53 PM 21.0 °F 3.9 °F 1.0 °F 42% 29.79 in 10.0 mi North 25.3 mph 34.5 mph N/A   Partly Cloudy
10:53 PM 19.9 °F 2.8 °F 1.0 °F 44% 29.78 in 10.0 mi North 24.2 mph 35.7 mph N/A   Clear
11:53 PM 19.9 °F 3.9 °F -0.0 °F 42% 29.79 in 10.0 mi NNE 20.7 mph 35.7 mph N/A   Overcast